Location: Unspecified
(41.1865°N, 0.0000°E)
Time: 00:23:53
(UTC+00:00)

SL-16 DEB - Visible Passes

Search period start: 04 April 2026 00:00
Search period end: 14 April 2026 00:00
Orbit: 801 x 932 km, 71.3° (Epoch: 22 March)

Date Brightness Start Highest point End Pass type
(mag) Time Alt. Az. Time Alt. Az. Time Alt. Az.
10 Apr ? 04:56:29 10° S 05:01:53 37° ESE 05:07:09 10° NE visible
11 Apr ? 04:48:45 10° S 04:54:14 40° ESE 04:59:35 10° NE visible
12 Apr ? 04:41:02 10° S 04:46:35 44° ESE 04:52:00 10° NE visible
13 Apr ? 04:33:18 10° S 04:38:56 47° ESE 04:44:24 10° NE visible
